Content
SEND FEEDBACK

Daily
Averages
Monthly
Summary
United States of America

PYGA BEACH, GUAM


Home > North America > United States > Guam
Elevation: 6 meters     Latitude: 13 17N     Longitude: 144 39E

WEATHER
 
SELECT A DAY
Number of Records: 357,231;   Date Range: 1/1/95 - 12/25/14
 
SHARE

PRINT THIS DATA

[ ← Previous Day ]
WEATHER ALMANAC - 29 JANUARY, 2013
[ Next Day → ]
[ °F ]   °C
Weather ElementAverageHighLow
Temperature26.4 °C28.3 °C (2:55 pm)24 °C (5:55 am)
Dewpoint21.2 °C22.3 °C (1:55 pm)19.5 °C (1:55 am)
Humidity73.2 %79 % (4:55 am)67 % (2:55 pm)
Barometer1013.2 hPa1014.6 hPa (8:55 am)1011.5 hPa (2:21 pm)
Wind Speed26.2 km/h33.3 km/h (11:20 am)
Wind Gust40.7 km/h (11:20 am)
Weather ElementAverage
Visibility16.1 km
Wind DirectionENE (68.1 °)

Weather ElementTotal
Precipitation---
Cooling Degree Days7.8 (Base 18.3)
Growing Degree Days16.2 (Base 10)
Averaged from 42 records on 29 January, 2013
WEATHER CONDITIONS BREAKOUT
WIND DIRECTION BREAKOUT
WEATHER BY HOUR - 29 JANUARY, 2013
[ °F ]   °C
Local TimeTemperatureDewpointHumidityBarometerVisibilityWind DirectionWind SpeedGust SpeedPrecipitationEventsConditions
1:55 AM24.5 °C19.5 °C74 %1012.5 hPa16.1 kmNE (50°)20.4 km/hClear
2:55 AM24.4 °C19.5 °C74 %1011.9 hPa16.1 kmNE (50°)22.2 km/hClear
3:55 AM24.4 °C19.6 °C74 %1011.9 hPa16.1 kmNE (50°)20.4 km/hClear
4:55 AM24.2 °C20.3 °C79 %1012.2 hPa16.1 kmNE (40°)16.7 km/hClear
5:55 AM24 °C20.2 °C79 %1012.9 hPa16.1 kmNE (50°)20.4 km/hClear
6:55 AM24.3 °C20 °C77 %1013.5 hPa16.1 kmNE (40°)18.5 km/hClear
7:55 AM25.3 °C20.6 °C75 %1013.9 hPa16.1 kmNE (40°)24.1 km/hPartly Cloudy
8:55 AM26.7 °C20.8 °C70 %1014.6 hPa16.1 kmNE (40°)24.1 km/hPartly Cloudy
9:36 AM27 °C21 °C70 %1014.6 hPa16.1 kmNE (40°)25.9 km/hMostly Cloudy
9:43 AM27 °C22 °C74 %1014.6 hPa16.1 kmNE (50°)22.2 km/hMostly Cloudy
9:55 AM27.7 °C22 °C71 %1014.2 hPa16.1 kmENE (60°)20.4 km/hScattered Clouds
10:55 AM27.6 °C21.6 °C70 %1013.9 hPa16.1 kmENE (60°)29.6 km/hScattered Clouds
11:20 AM27 °C22 °C74 %1013.5 hPa16.1 kmENE (60°)33.3 km/h40.7 km/hMostly Cloudy
11:21 AM27 °C22 °C74 %1013.5 hPa16.1 kmENE (70°)29.6 km/h40.7 km/hScattered Clouds
11:24 AM27 °C22 °C74 %1013.5 hPa16.1 kmENE (60°)33.3 km/h40.7 km/hMostly Cloudy
11:29 AM28 °C22 °C70 %1013.5 hPa16.1 kmENE (70°)29.6 km/h40.7 km/hScattered Clouds
11:34 AM28 °C22 °C70 %1013.5 hPa16.1 kmEast (80°)33.3 km/hMostly Cloudy
11:50 AM28 °C22 °C70 %1013.2 hPa16.1 kmENE (70°)31.5 km/h40.7 km/hMostly Cloudy
11:55 AM27.9 °C21.9 °C70 %1013.2 hPa16.1 kmEast (80°)31.5 km/hScattered Clouds
12:48 PM27 °C22 °C74 %1012.5 hPa16.1 kmENE (70°)31.5 km/hMostly Cloudy
12:55 PM26.9 °C21.8 °C73 %1012.5 hPa16.1 kmENE (70°)29.6 km/hMostly Cloudy
12:58 PM27 °C22 °C74 %1012.5 hPa16.1 kmENE (70°)25.9 km/hMostly Cloudy
12:59 PM27 °C22 °C74 %1012.5 hPa16.1 kmEast (80°)27.8 km/hMostly Cloudy
1:02 PM27 °C22 °C74 %1012.5 hPa16.1 kmENE (70°)27.8 km/hMostly Cloudy
1:55 PM27.9 °C22.3 °C71 %1011.9 hPa16.1 kmEast (90°)25.9 km/h35.2 km/hScattered Clouds
2:06 PM28 °C22 °C70 %1011.9 hPa16.1 kmEast (80°)29.6 km/hMostly Cloudy
2:21 PM28 °C22 °C70 %1011.5 hPa16.1 kmEast (90°)22.2 km/hScattered Clouds
2:55 PM28.3 °C21.6 °C67 %1011.5 hPa16.1 kmEast (80°)24.1 km/hScattered Clouds
3:22 PM27 °C22 °C74 %1011.5 hPa16.1 kmENE (70°)29.6 km/h38.9 km/hMostly Cloudy
3:23 PM27 °C21 °C70 %1011.5 hPa16.1 kmENE (70°)29.6 km/h38.9 km/hMostly Cloudy
3:55 PM26.9 °C21.2 °C71 %1011.5 hPa16.1 kmEast (80°)29.6 km/hMostly Cloudy
4:55 PM26.8 °C21 °C70 %1011.9 hPa16.1 kmEast (80°)24.1 km/hMostly Cloudy
5:55 PM26.1 °C20.5 °C71 %1012.5 hPa16.1 kmEast (80°)29.6 km/hMostly Cloudy
6:55 PM25.5 °C20.8 °C75 %1012.9 hPa16.1 kmEast (80°)25.9 km/hPartly Cloudy
7:55 PM25.4 °C20.6 °C75 %1013.5 hPa16.1 kmEast (80°)25.9 km/hPartly Cloudy
8:55 PM25.3 °C20.6 °C75 %1013.9 hPa16.1 kmEast (90°)24.1 km/hClear
9:55 PM25.3 °C20.8 °C76 %1014.6 hPa16.1 kmEast (80°)25.9 km/hScattered Clouds
10:03 PM25 °C21 °C78 %1014.6 hPa16.1 kmENE (70°)27.8 km/hMostly Cloudy
10:14 PM25 °C21 °C78 %1014.6 hPa16.1 kmEast (80°)25.9 km/hScattered Clouds
10:55 PM25.3 °C20.7 °C76 %1014.2 hPa16.1 kmEast (80°)22.2 km/hPartly Cloudy
11:45 PM25 °C20 °C74 %1013.9 hPa16.1 kmEast (80°)22.2 km/hMostly Cloudy
11:55 PM25.2 °C20.2 °C74 %1013.9 hPa16.1 kmEast (80°)24.1 km/hMostly Cloudy
Hourly data recorded from PGUA, located 0 kilometers away from Pyga Beach, Guam







STORIES FROM OUR PARTNERS